Flag for U.S.A. Weather past 2 weeks in Plano, Texas, U.S.A.

Now
74 °F

Sunny.


Feels Like: 74 °F
Forecast: 74 / 86 °F
Wind: 3 mph from South

Location: McKinney Municipal Airport

Current Time: Sep 18, 2014 at 9:24:34 AM

Latest Report: Sep 18, 2014 at 8:53 AM


Visibility: 10 mi

Pressure: 29.92 "Hg

Humidity: 82%

Dew point: 68 °F

Location of PlanoLocation

Historic Weather in Plano — Graph

°F

Plano temperature yesterday

Maximum temperature yesterday: 93 °F (at 4:53 PM)
Minimum temperature yesterday: 71 °F (at 5:53 AM)
Average temperature yesterday: 81 °F

Past Weeks' High & Low Weather Summary

 TemperatureHumidityPressure
High100 °F (Sep 10, 3:53 PM)97% (Sep 12, 7:57 AM)30.31 "Hg (Sep 12, 7:57 AM)
Low54 °F (Sep 13, 6:53 AM)34% (Sep 5, 6:53 PM)29.71 "Hg (Sep 10, 6:53 PM)
Average78 °F70%30.01 "Hg
* Reported Sep 3 8:53 AM — Sep 18 8:01 AM, Plano, Weather by CustomWeather, © 2014

Note: Actual official high and low records may vary slightly from our data, if they occured in-between our weather recording intervals... More about our weather records

Advertising

Plano weather history for previous 24 hours

 ConditionsComfort  
Time TempWeatherWind HumidityBarometerVisibility
8:01 AM
Sep 18
72 °FPassing clouds.3 mph87%29.91 "Hg10 mi
6:53 AM71 °FPassing clouds.3 mph90%29.87 "Hg10 mi
5:53 AM73 °FPassing clouds.5 mph84%29.86 "Hg10 mi
4:53 AM73 °FClear.8 mph84%29.87 "Hg10 mi
3:53 AM74 °FPassing clouds.8 mph88%29.89 "Hg10 mi
2:53 AM76 °FClear.No wind82%29.88 "Hg10 mi
1:53 AM78 °FClear.7 mph76%29.88 "Hg10 mi
12:53 AM80 °FClear.10 mph74%29.88 "Hg10 mi
11:53 PM
Sep 17
80 °FClear.8 mph71%29.89 "Hg10 mi
10:53 PM79 °FPassing clouds.5 mph77%29.89 "Hg10 mi
9:53 PM80 °FClear.3 mph74%29.88 "Hg10 mi
8:53 PM80 °FClear.5 mph74%29.87 "Hg10 mi
7:53 PM83 °FSunny.6 mph68%29.87 "Hg10 mi
6:53 PM85 °FSunny.9 mph61%29.85 "Hg10 mi
5:53 PM89 °FPassing clouds.13 mph50%29.84 "Hg10 mi
4:53 PM93 °FSunny.5 mph40%29.83 "Hg10 mi
3:53 PM91 °FPartly sunny.6 mph45%29.85 "Hg10 mi
2:53 PM92 °FPassing clouds.N/A44%29.87 "Hg10 mi
1:53 PM90 °FSunny.8 mph48%29.90 "Hg10 mi
12:53 PM89 °FSunny.7 mph53%29.93 "Hg10 mi
11:53 AM86 °FScattered clouds.6 mph59%29.94 "Hg10 mi
10:53 AM83 °FSunny.6 mph68%29.96 "Hg10 mi
9:53 AM80 °FSunny.7 mph76%29.96 "Hg10 mi
Weather by CustomWeather, © 2014

See weather overviewHow to use our weather pages